Tracking 30743 objects as of 21-Jun-2025
HD Live streaming from Space Station
objects crossing your sky now

SL-8 DEB

Track SL-8 DEB now!
10-day predictions


NORAD ID: 21252
Int'l Code: 1991-009BK
Perigee: 1,479.1 km
Apogee: 1,677.4 km
Inclination: 74.1 °
Period: 117.6 minutes
Semi major axis: 7949 km
RCS: 0.066 m2 (small)
Launch date: February 12, 1991
Source: Commonwealth of Independent States (former USSR) (CIS)
Launch site: PLESETSK MISSILE AND SPACE COMPLEX (PKMTR)

Note: This is SATELLITE DEBRIS
Your satellite tracking list
Your tracking list is empty




NASA's NSSDC Master Catalog

Two Line Element Set (TLE):
1 21252U 91009BK  25171.59246356  .00000038  00000-0  46302-3 0  9996
2 21252  74.1037 213.9147 0124691 195.5731 321.3464 12.24935826532721
Source of the keplerian elements: AFSPC